TimeCDT,TemperatureF,Dew PointF,Humidity,Sea Level PressureIn,VisibilityMPH,Wind Direction,Wind SpeedMPH,Gust SpeedMPH,PrecipitationIn,Events,Conditions,WindDirDegrees,DateUTC
12:15 AM,37.4,30.2,75,30.48,10.0,NNW,16.1,-,N/A,,Overcast,340,2013-05-02 05:15:00
12:34 AM,39.2,30.2,70,30.47,10.0,North,13.8,21.9,N/A,,Overcast,350,2013-05-02 05:34:00
12:55 AM,37.4,30.2,75,30.48,10.0,NNW,15.0,19.6,N/A,,Scattered Clouds,340,2013-05-02 05:55:00
1:35 AM,37.4,30.2,75,30.49,10.0,NNW,15.0,-,N/A,,Mostly Cloudy,330,2013-05-02 06:35:00
1:54 AM,37.4,30.2,75,30.50,10.0,NNW,12.7,-,N/A,,Mostly Cloudy,330,2013-05-02 06:54:00
2:15 AM,37.4,30.2,75,30.51,10.0,NNW,15.0,-,N/A,,Mostly Cloudy,330,2013-05-02 07:15:00
2:35 AM,37.4,32.0,81,30.52,10.0,NNW,15.0,-,N/A,,Overcast,330,2013-05-02 07:35:00
2:55 AM,37.4,30.2,75,30.52,10.0,NNW,13.8,-,N/A,,Overcast,330,2013-05-02 07:55:00
3:14 AM,35.6,30.2,81,30.50,10.0,NNW,17.3,21.9,N/A,,Scattered Clouds,330,2013-05-02 08:14:00
3:35 AM,35.6,30.2,81,30.50,10.0,NNW,16.1,-,N/A,,Scattered Clouds,330,2013-05-02 08:35:00
3:55 AM,35.6,30.2,81,30.51,10.0,NNW,15.0,20.7,N/A,,Mostly Cloudy,330,2013-05-02 08:55:00
4:14 AM,35.6,30.2,81,30.50,10.0,NNW,15.0,20.7,N/A,,Overcast,340,2013-05-02 09:14:00
4:35 AM,35.6,30.2,81,30.51,10.0,NNW,12.7,-,N/A,,Mostly Cloudy,330,2013-05-02 09:35:00
4:55 AM,35.6,30.2,81,30.51,10.0,NNW,12.7,-,N/A,,Mostly Cloudy,330,2013-05-02 09:55:00
5:15 AM,35.6,30.2,81,30.51,10.0,NNW,13.8,-,N/A,,Overcast,330,2013-05-02 10:15:00
5:34 AM,35.6,30.2,81,30.52,10.0,NNW,12.7,-,N/A,,Overcast,340,2013-05-02 10:34:00
5:55 AM,35.6,30.2,81,30.53,10.0,NNW,15.0,-,N/A,,Scattered Clouds,330,2013-05-02 10:55:00
6:15 AM,35.6,30.2,81,30.52,10.0,NNW,13.8,-,N/A,,Mostly Cloudy,340,2013-05-02 11:15:00
6:35 AM,35.6,30.2,81,30.53,10.0,NNW,13.8,-,N/A,,Mostly Cloudy,330,2013-05-02 11:35:00
6:55 AM,35.6,30.2,81,30.52,10.0,NNW,15.0,-,N/A,,Scattered Clouds,330,2013-05-02 11:55:00
7:15 AM,35.6,28.4,75,30.54,10.0,NNW,13.8,20.7,N/A,,Clear,330,2013-05-02 12:15:00
7:34 AM,35.6,28.4,75,30.54,10.0,NNW,12.7,-,N/A,,Clear,330,2013-05-02 12:34:00
7:55 AM,35.6,28.4,75,30.55,10.0,NNW,13.8,-,N/A,,Scattered Clouds,330,2013-05-02 12:55:00
8:15 AM,35.6,28.4,75,30.56,10.0,NNW,16.1,-,N/A,,Scattered Clouds,330,2013-05-02 13:15:00
8:34 AM,35.6,28.4,75,30.56,10.0,NNW,16.1,19.6,N/A,,Clear,330,2013-05-02 13:34:00
8:55 AM,35.6,28.4,75,30.56,10.0,NW,20.7,-,N/A,,Clear,320,2013-05-02 13:55:00
9:15 AM,37.4,28.4,70,30.56,10.0,NNW,21.9,25.3,N/A,,Clear,330,2013-05-02 14:15:00
9:34 AM,37.4,28.4,70,30.55,10.0,NNW,21.9,28.8,N/A,,Clear,340,2013-05-02 14:34:00
9:55 AM,37.4,28.4,70,30.55,10.0,NNW,20.7,25.3,N/A,,Clear,330,2013-05-02 14:55:00
10:15 AM,37.4,28.4,70,30.55,10.0,NNW,23.0,26.5,N/A,,Scattered Clouds,330,2013-05-02 15:15:00
10:34 AM,37.4,26.6,65,30.55,10.0,NNW,23.0,28.8,N/A,,Clear,340,2013-05-02 15:34:00
10:55 AM,39.2,26.6,61,30.55,10.0,NNW,21.9,29.9,N/A,,Clear,330,2013-05-02 15:55:00
11:15 AM,39.2,26.6,61,30.55,10.0,NNW,23.0,26.5,N/A,,Clear,330,2013-05-02 16:15:00
11:34 AM,39.2,26.6,61,30.54,10.0,NNW,25.3,-,N/A,,Clear,330,2013-05-02 16:34:00
11:55 AM,42.8,28.4,57,30.54,10.0,NNW,23.0,27.6,N/A,,Clear,330,2013-05-02 16:55:00
12:15 PM,42.8,28.4,57,30.53,10.0,NNW,23.0,29.9,N/A,,Clear,330,2013-05-02 17:15:00
12:34 PM,44.6,28.4,53,30.52,10.0,NNW,25.3,31.1,N/A,,Clear,330,2013-05-02 17:34:00
12:55 PM,44.6,28.4,53,30.52,10.0,NNW,21.9,28.8,N/A,,Clear,330,2013-05-02 17:55:00
1:15 PM,44.6,28.4,53,30.51,10.0,NNW,23.0,31.1,N/A,,Clear,330,2013-05-02 18:15:00
1:35 PM,46.4,26.6,46,30.50,10.0,NNW,23.0,29.9,N/A,,Clear,340,2013-05-02 18:35:00
1:54 PM,46.4,26.6,46,30.50,10.0,NNW,26.5,31.1,N/A,,Clear,330,2013-05-02 18:54:00
2:15 PM,46.4,26.6,46,30.49,10.0,NNW,21.9,29.9,N/A,,Clear,330,2013-05-02 19:15:00
2:35 PM,48.2,28.4,46,30.49,10.0,NNW,23.0,28.8,N/A,,Clear,330,2013-05-02 19:35:00
2:55 PM,48.2,28.4,46,30.48,10.0,NNW,20.7,27.6,N/A,,Clear,340,2013-05-02 19:55:00
3:14 PM,48.2,26.6,43,30.48,10.0,NNW,21.9,28.8,N/A,,Clear,330,2013-05-02 20:14:00
3:35 PM,48.2,26.6,43,30.47,10.0,NNW,21.9,27.6,N/A,,Clear,340,2013-05-02 20:35:00
3:55 PM,48.2,26.6,43,30.46,10.0,NW,17.3,28.8,N/A,,Clear,320,2013-05-02 20:55:00
4:15 PM,46.4,26.6,46,30.46,10.0,NW,20.7,26.5,N/A,,Clear,320,2013-05-02 21:15:00
4:35 PM,46.4,24.8,43,30.45,10.0,NNW,20.7,24.2,N/A,,Clear,330,2013-05-02 21:35:00
4:55 PM,48.2,26.6,43,30.44,10.0,NNW,17.3,23.0,N/A,,Clear,340,2013-05-02 21:55:00
5:15 PM,48.2,26.6,43,30.44,10.0,NNW,19.6,25.3,N/A,,Clear,330,2013-05-02 22:15:00
5:35 PM,48.2,26.6,43,30.43,10.0,NNW,19.6,24.2,N/A,,Clear,330,2013-05-02 22:35:00
5:55 PM,48.2,26.6,43,30.44,10.0,NNW,19.6,26.5,N/A,,Scattered Clouds,340,2013-05-02 22:55:00
6:15 PM,48.2,26.6,43,30.44,10.0,North,18.4,24.2,N/A,,Mostly Cloudy,350,2013-05-02 23:15:00
6:35 PM,48.2,26.6,43,30.43,10.0,North,18.4,-,N/A,,Scattered Clouds,360,2013-05-02 23:35:00
6:55 PM,48.2,24.8,40,30.43,10.0,North,17.3,26.5,N/A,,Scattered Clouds,350,2013-05-02 23:55:00
7:15 PM,46.4,26.6,46,30.42,10.0,North,15.0,20.7,N/A,,Clear,350,2013-05-03 00:15:00
7:35 PM,44.6,24.8,46,30.43,10.0,NNW,15.0,-,N/A,,Clear,340,2013-05-03 00:35:00
7:55 PM,44.6,28.4,53,30.43,10.0,NNE,15.0,-,N/A,,Clear,20,2013-05-03 00:55:00
8:15 PM,42.8,28.4,57,30.43,10.0,NNE,11.5,-,N/A,,Clear,20,2013-05-03 01:15:00
8:34 PM,41.0,28.4,61,30.44,10.0,NNE,11.5,-,N/A,,Clear,20,2013-05-03 01:34:00
8:55 PM,39.2,28.4,65,30.44,10.0,North,5.8,-,N/A,,Clear,360,2013-05-03 01:55:00
9:15 PM,39.2,26.6,61,30.44,10.0,Calm,Calm,-,N/A,,Clear,0,2013-05-03 02:15:00
9:34 PM,39.2,28.4,65,30.45,10.0,North,8.1,-,N/A,,Clear,350,2013-05-03 02:34:00
9:55 PM,39.2,28.4,65,30.45,10.0,North,8.1,-,N/A,,Clear,360,2013-05-03 02:55:00
10:15 PM,39.2,28.4,65,30.45,10.0,North,8.1,-,N/A,,Clear,350,2013-05-03 03:15:00
10:35 PM,37.4,28.4,70,30.44,10.0,North,8.1,-,N/A,,Clear,350,2013-05-03 03:35:00
10:55 PM,37.4,28.4,70,30.44,10.0,North,9.2,-,N/A,,Clear,350,2013-05-03 03:55:00
11:15 PM,37.4,28.4,70,30.43,10.0,North,9.2,-,N/A,,Clear,350,2013-05-03 04:15:00
11:35 PM,37.4,28.4,70,30.43,10.0,North,9.2,-,N/A,,Clear,350,2013-05-03 04:35:00
11:54 PM,35.6,28.4,75,30.43,10.0,North,8.1,-,N/A,,Clear,350,2013-05-03 04:54:00